Location: Unspecified
(0.0000°N, 0.0000°E)
Time: 22:15:39
(UTC+00:00)

Vanguard 1 - Pass Details

Date: 11 February 2018
Orbit: 650 x 3833 km, 34.3° (Epoch: 21 May)

Event Time Altitude Azimuth Distance (km) Brightness Sun altitude
Exits shadow 03:49:35 37° 231° (SW) 3,240 12.3 -34.9°
Maximum altitude 03:52:43 41° 206° (SSW) 3,377 12.6 -34.2°
Drops below altitude 10° 04:10:49 10° 142° (SE) 6,607 14.9 -29.8°
Sets 04:17:17 0° 135° (SE) 7,874 15.6 -28.3°
